Tracking 30990 objects as of 9-Jul-2025
HD Live streaming from Space Station
objects crossing your sky now

ORBCOMM FM 103

Track ORBCOMM FM 103 now!
10-day predictions
ORBCOMM FM 103 is classified as:


NORAD ID: 40091
Int'l Code: 2014-040F
Perigee: 705.1 km
Apogee: 707.2 km
Inclination: 47.0 °
Period: 98.8 minutes
Semi major axis: 7077 km
RCS: Unknown
Launch date: July 14, 2014
Source: United States (US)
Launch site: AIR FORCE EASTERN TEST RANGE (AFETR)
Your satellite tracking list
Your tracking list is empty




NASA's NSSDC Master Catalog

Two Line Element Set (TLE):
1 40091U 14040F   25189.56405313  .00000252  00000-0  90583-4 0  9993
2 40091  47.0055 276.8491 0001472 344.2797  15.8043 14.58192902567228
Source of the keplerian elements: AFSPC